Wind_Speed
9 11 15 11 13 17 13 8 5 8 9 8 10 14 11 12 8 10 10 3 5 9 10 17 19 27 32 33 35 37 35 32 34 33 33 29 29 28 26 30 29 27 25 23
8 12 12 12 8 13 16 14 11 9 9 5 3 9 10 14 13 11 9 12 6 6 10 13 19 26 28 32 34 38 36 36 35 35 30 31 30 28 25 30 29 22 21 22
5 11 14 9 7 14 17 16 8 5 3 10 16 19 18 10 4 12 11 13 12 11 7 17 22 25 27 30 32 34 33 36 35 32 31 29 25 19 16 15 15 20 17 18
7 5 10 6 6 13 15 9 13 8 8 7 5 13 15 13 10 2 9 11 10 7 10 16 25 25 27 29 29 30 31 28 29 27 24 22 20 18 17 14 14 15 16 17
6 7 9 10 10 10 10 5 19 18 23 15 12 8 11 11 9 9 8 11 8 11 14 32 20 25 27 24 27 28 29 28 26 25 23 21 20 18 15 13 12 12 13 12
4 5 4 4 13 18 16 4 16 19 21 27 12 7 3 6 7 4 10 12 19 23 22 30 37 31 28 24 24 24 27 29 29 27 25 23 21 17 15 13 11 9 10 10
5 5 4 6 12 8 6 6 10 11 12 17 11 12 2 5 3 2 6 5 10 4 4 13 30 29 27 25 23 25 27 27 25 25 24 21 17 15 14 11 8 7 5 5
5 4 3 9 5 4 4 5 6 5 4 7 13 19 19 8 5 7 7 5 10 17 22 35 29 43 23 23 26 26 28 27 25 22 18 18 17 15 13 12 8 6 7 7
2 3 4 4 5 3 1 4 6 5 5 4 5 8 14 15 4 7 2 13 13 14 24 38 44 45 22 25 27 30 30 27 25 24 21 17 18 17 14 11 11 12 12 11
6 6 13 7 9 14 15 10 7 8 10 5 6 8 10 15 10 7 12 16 17 11 13 24 43 45 29 27 30 30 26 27 25 22 18 18 15 15 12 10 15 14 10 15
5 5 14 5 14 13 17 19 17 10 9 14 17 10 5 9 10 9 3 13 22 21 21 39 18 15 31 33 34 28 26 26 23 23 22 19 13 13 14 9 6 15 13 12
4 9 6 16 16 16 18 19 16 12 15 19 20 3 3 9 15 20 11 13 22 26 24 17 21 33 19 33 36 32 23 25 23 23 20 18 14 12 8 4 2 9 8 8
5 11 16 16 16 15 16 16 18 14 15 14 18 9 5 10 13 28 15 13 12 8 16 31 23 13 6 14 27 27 23 22 23 24 25 24 18 15 13 7 4 6 8 7
9 8 11 12 13 19 19 19 19 9 20 19 19 22 7 10 15 22 20 17 8 12 27 34 29 29 28 24 17 7 6 16 18 20 22 25 24 19 18 17 12 10 11 9
8 11 13 16 17 17 17 8 7 10 10 13 25 13 8 9 9 18 27 24 8 17 18 29 34 34 35 34 32 27 11 3 13 18 16 23 24 23 21 18 16 13 13 12
16 16 17 16 17 16 16 13 11 14 9 12 14 17 20 18 18 19 25 18 14 17 19 18 26 37 35 38 35 41 34 29 29 18 18 14 14 20 19 17 17 21 16 13
16 19 20 21 18 16 16 14 13 13 12 12 17 27 22 16 13 14 19 11 12 14 29 35 34 44 42 31 32 30 27 20 16 14 18 18 16 11 12 20 17 19 18 15
14 16 17 16 17 15 12 14 13 14 14 19 21 19 13 10 12 17 11 5 11 15 29 32 28 23 21 15 19 21 24 19 10 10 12 15 14 15 14 10 19 18 17 15
19 15 16 17 17 14 11 13 16 19 20 22 16 9 13 21 15 16 9 10 12 9 20 28 29 28 22 21 21 18 17 16 12 10 9 9 19 19 17 14 13 19 21 20
17 22 22 22 23 16 10 16 17 15 16 16 19 13 9 5 15 18 14 16 14 14 9 21 24 20 20 21 21 13 12 9 9 13 15 9 14 18 18 15 18 18 24 22
15 19 19 14 14 16 15 15 16 15 19 11 12 10 13 19 25 26 10 3 8 3 8 18 19 19 17 18 20 20 17 14 14 18 19 15 12 10 22 20 19 18 18 23
17 11 15 16 13 17 20 16 16 14 11 11 10 12 16 4 13 3 4 6 11 11 13 12 7 10 9 16 21 22 21 22 22 23 16 17 19 23 26 24 24 23 21 17
20 19 19 16 13 16 20 20 20 23 23 21 21 21 18 18 14 5 4 6 5 7 10 6 3 6 12 16 18 19 20 18 17 14 13 18 19 23 29 27 24 31 27 23
16 20 13 17 19 19 14 20 20 21 21 22 24 24 22 19 16 18 14 12 7 14 10 12 13 19 25 24 22 14 7 10 5 4 12 23 31 28 24 21 18 18 20 30
18 14 15 16 12 10 15 19 20 23 20 20 23 22 23 21 16 20 18 12 8 8 7 10 7 2 6 10 15 9 3 11 19 20 31 31 34 32 21 16 13 17 15 3
17 6 10 14 12 14 14 15 13 17 19 19 22 22 20 22 20 20 18 24 12 5 6 5 1 5 5 5 6 9 11 12 21 10 14 9 13 11 5 4 8 16 15 9
11 5 7 4 8 8 12 16 15 14 17 17 17 21 23 27 27 23 23 24 25 27 22 22 22 16 2 1 4 8 11 9 18 27 31 21 22 24 23 13 4 2 7 7
Wind_Direction
265 272 288 296 292 300 303 259 210 258 287 279 200 200 214 157 140 114 97 17 12 349 195 182 179 184 188 188 184 185 187 192 200 207 210 212 219 222 231 229 226 229 234 237
323 321 316 294 313 323 312 301 296 293 278 21 14 290 247 137 142 140 178 181 207 263 258 182 182 186 188 189 189 184 187 195 201 205 205 213 219 227 234 231 225 226 226 235
285 313 318 316 333 312 302 310 300 345 326 15 19 43 46 37 115 158 172 184 206 225 255 188 192 186 185 191 191 190 191 196 199 201 207 215 218 220 212 216 216 227 223 237
269 289 272 263 328 351 342 350 18 27 22 63 63 88 70 47 57 202 206 242 219 207 286 234 196 192 183 184 185 188 192 183 186 188 195 203 216 226 233 236 239 241 240 246
238 242 262 264 15 349 341 5 18 8 351 1 19 112 76 86 46 44 357 279 323 74 19 348 213 185 184 181 184 186 187 188 188 191 192 196 203 212 222 223 231 237 238 242
289 330 309 30 350 340 317 213 13 11 358 348 356 27 77 106 142 111 38 21 5 348 354 336 307 177 177 183 182 188 194 193 188 189 194 196 195 196 211 214 214 227 240 250
323 276 92 353 352 338 331 304 337 358 348 355 349 334 263 45 267 166 174 49 9 37 207 321 314 298 167 180 185 190 192 192 190 188 183 187 189 196 201 206 204 204 216 252
1 342 321 7 33 85 255 296 332 286 299 324 338 338 336 352 9 216 155 67 25 16 1 333 302 303 175 182 186 186 187 186 183 182 184 182 183 180 180 180 184 219 242 232
106 281 9 353 263 285 262 239 231 256 232 275 309 322 322 324 222 277 139 105 83 44 341 309 294 267 180 181 182 186 180 175 170 164 165 174 166 163 166 179 201 225 232 214
11 10 357 345 9 353 341 325 287 271 284 277 264 277 294 312 301 309 161 161 142 156 175 245 271 220 177 176 179 169 159 163 161 159 158 160 166 174 188 197 219 222 190 173
263 348 340 306 336 331 320 318 317 317 298 293 267 241 347 310 301 279 131 191 170 189 205 228 278 295 172 170 165 158 150 157 163 165 156 150 148 147 163 158 145 152 153 160
284 321 286 295 310 324 315 301 295 306 314 313 312 273 326 293 300 290 270 166 183 181 202 232 267 268 175 159 163 160 159 164 169 171 169 166 166 143 154 181 217 197 185 192
277 294 293 304 303 309 300 300 298 292 292 294 301 299 295 293 307 315 274 288 302 146 194 195 170 108 102 140 154 165 163 174 180 183 178 174 171 165 153 148 158 177 193 180
285 335 309 301 304 300 293 288 286 280 285 286 292 292 20 311 308 304 283 279 289 146 137 140 133 146 158 195 165 124 177 195 204 192 193 186 180 172 163 164 171 179 176 171
299 301 281 289 290 290 283 296 277 257 264 301 303 295 316 277 277 277 296 264 175 153 151 149 150 154 152 149 149 148 128 248 211 204 189 193 191 179 180 172 167 175 180 185
298 295 296 294 296 297 297 293 282 278 284 275 270 265 280 262 256 277 298 282 173 147 155 157 153 156 156 153 161 154 154 183 212 214 183 175 174 186 190 186 165 176 184 187
297 303 307 304 306 302 290 285 279 279 251 262 270 268 282 293 298 299 281 334 220 170 173 174 176 170 168 169 170 171 173 192 172 157 180 183 199 202 191 187 186 186 195 198
282 294 300 299 298 301 292 291 290 288 286 289 266 259 253 269 277 275 281 294 203 183 185 194 186 183 193 199 191 182 185 179 180 160 166 188 193 201 212 199 195 195 206 203
311 307 314 313 311 305 288 290 294 291 290 288 277 260 249 259 272 305 314 145 156 189 202 182 192 202 203 199 188 193 181 178 184 212 216 210 193 201 207 218 203 217 214 211
324 320 319 317 324 339 340 340 330 316 308 306 306 296 291 324 319 325 336 251 236 241 199 180 175 182 182 188 198 194 189 191 217 239 230 202 199 210 211 201 214 238 198 201
327 336 332 326 329 342 336 339 4 0 347 20 28 2 8 16 315 284 272 356 40 277 221 194 187 185 194 201 199 194 197 210 217 228 223 208 199 258 226 214 218 224 214 220
352 336 322 337 343 348 350 357 26 20 2 39 16 17 333 298 228 219 32 19 113 115 106 101 151 198 211 208 201 205 212 224 229 226 228 210 219 248 230 213 223 229 228 208
345 325 325 348 355 348 23 20 14 24 18 33 20 24 25 23 21 43 40 21 176 171 179 228 234 191 221 241 231 220 218 219 221 211 219 223 243 256 225 216 218 220 224 221
323 302 323 18 21 18 14 10 23 24 33 32 30 28 26 21 27 36 51 75 126 175 192 210 221 232 246 245 233 202 121 54 137 145 234 259 253 257 219 227 227 206 227 230
316 309 23 26 10 14 22 28 29 31 29 29 29 31 37 37 41 48 56 57 74 96 127 143 125 19 303 230 207 187 108 33 352 248 211 227 248 244 225 218 232 213 204 231
288 343 40 46 26 14 28 37 39 35 32 30 27 22 26 35 44 41 42 45 43 82 174 184 268 306 274 174 124 54 23 16 346 355 215 150 88 67 53 227 242 232 224 267
195 98 73 15 43 18 54 51 41 40 43 43 38 27 30 41 44 43 45 44 55 71 86 69 60 55 96 341 339 358 67 65 45 32 43 34 43 47 31 11 328 277 228 191
Height
745 737 733 737 737 729 738 740 755 740 730 715 711 704 697 695 708 705 704 711 720 730 724 726 731 736 740 743 745 748 753 758 762 768 774 779 783 788 791 792 795 798 801 804
758 737 734 739 731 730 727 722 724 725 730 704 704 692 691 701 703 707 708 699 705 724 727 723 727 731 737 739 742 744 747 750 755 761 767 772 777 780 785 785 788 794 796 799
776 753 749 763 741 734 728 723 723 741 730 719 716 716 723 715 710 709 706 700 705 715 721 719 724 728 731 736 740 743 744 746 749 754 760 765 771 775 777 779 784 789 792 794
774 764 790 746 726 731 732 721 720 718 717 720 723 731 729 723 722 720 714 710 706 712 723 723 721 726 730 733 738 741 744 745 746 749 753 758 764 769 773 775 779 783 786 789
774 775 755 739 751 756 760 749 750 750 732 719 716 721 742 739 732 728 724 722 730 719 721 731 725 724 730 736 740 742 742 743 743 745 749 752 756 763 768 772 776 779 782 784
761 779 783 771 755 740 732 758 751 751 753 751 724 746 744 737 736 740 734 730 722 714 714 731 738 719 726 732 737 741 744 743 742 744 746 749 752 757 763 767 771 775 778 780
765 767 763 761 749 737 768 778 758 759 759 758 759 758 736 732 730 730 729 729 725 731 735 735 736 737 717 728 732 738 742 745 746 746 746 749 751 753 757 762 766 770 772 775
773 776 780 756 750 771 764 758 760 758 754 753 750 745 738 732 734 731 727 720 719 722 727 730 717 733 714 722 728 735 739 743 744 745 749 749 750 751 755 758 762 767 769 771
776 782 761 759 761 753 755 756 758 753 741 742 741 742 741 741 728 723 721 725 723 721 717 712 721 731 714 719 727 736 738 742 743 745 748 752 750 751 754 756 759 763 765 768
776 765 768 762 759 758 755 750 745 745 744 736 734 734 736 734 732 723 724 718 717 710 704 714 714 717 708 719 728 736 737 742 745 745 747 752 752 751 752 754 756 759 761 763
773 766 764 755 758 759 754 747 743 738 735 734 733 725 726 730 730 725 720 720 718 714 702 686 695 707 707 718 727 734 738 742 747 747 746 750 750 750 750 753 754 755 758 760
786 775 774 765 758 755 753 746 739 736 729 726 726 721 723 725 726 718 714 717 724 716 706 698 700 714 716 716 721 729 737 738 743 748 749 749 749 749 750 753 754 756 757 759
780 771 767 759 755 753 749 745 737 728 722 723 722 721 721 720 722 718 707 705 705 704 696 699 718 720 715 721 726 732 734 740 742 743 745 744 747 746 747 752 753 755 756 757
771 769 763 755 754 747 742 735 729 725 716 712 712 711 717 719 717 712 704 700 699 700 702 705 710 703 720 721 725 735 737 741 744 743 745 744 742 742 741 744 750 754 755 757
765 764 761 754 747 739 732 728 724 720 713 704 701 701 708 714 707 705 699 695 695 700 703 704 707 714 717 712 715 717 723 737 740 738 741 744 742 740 742 741 744 752 756 756
761 756 749 744 738 732 726 721 718 711 706 702 697 697 696 700 699 696 693 687 686 695 698 697 696 701 702 700 707 705 710 714 723 732 735 737 741 740 741 741 743 747 753 754
758 747 741 734 729 723 718 714 709 704 700 697 692 690 694 689 689 690 686 682 683 682 690 696 697 696 697 701 704 705 708 717 720 724 729 731 736 737 739 740 741 745 748 752
750 742 736 730 722 715 710 704 702 698 694 692 688 688 687 684 682 683 683 679 682 686 689 688 693 699 703 705 703 707 711 712 715 720 726 731 732 733 737 739 738 742 745 748
743 737 729 722 716 710 705 700 695 692 688 685 683 679 676 673 672 669 670 675 679 681 685 690 693 698 700 705 708 711 710 712 717 721 724 727 727 732 732 733 737 740 742 743
739 733 726 719 712 707 702 696 690 687 682 679 676 674 673 673 668 666 666 669 664 668 674 681 688 692 698 705 708 707 708 710 716 718 721 725 725 727 727 728 731 735 737 738
736 731 724 717 711 706 701 699 693 686 682 677 676 676 675 676 671 666 667 663 663 664 667 676 680 683 688 693 699 703 705 709 714 714 715 716 718 721 725 727 728 731 732 734
737 730 724 717 712 707 701 697 693 685 684 680 678 676 676 674 672 671 669 668 669 670 671 673 679 683 686 690 693 696 699 704 708 709 710 712 716 720 722 723 724 725 727 729
738 732 726 719 716 711 705 702 698 694 688 686 682 680 676 678 675 672 671 672 673 673 670 671 678 679 684 689 691 696 698 700 703 706 708 711 714 715 716 716 718 719 721 724
741 734 729 722 718 714 711 709 707 704 701 697 692 688 685 682 681 681 679 679 677 679 679 679 680 683 687 688 690 692 696 701 703 705 707 709 708 710 709 710 712 715 717 719
738 734 729 726 723 720 717 715 712 708 705 701 698 695 692 691 690 689 686 685 685 685 685 685 686 688 686 685 689 691 697 701 706 707 702 702 705 706 705 706 707 709 712 716
737 734 733 730 727 725 722 719 718 716 712 708 704 702 700 697 695 693 691 689 686 685 688 690 691 691 691 691 694 697 697 697 702 699 701 700 697 700 706 705 705 708 709 709
735 735 733 730 727 727 728 726 723 721 720 717 714 710 706 701 698 696 695 693 690 688 692 693 694 693 694 696 697 697 699 702 701 703 698 700 702 701 702 702 703 706 707 706